Back to catalog

DMSP 5D-3 F19 DEB

AliveSSO
NORAD 39632·DEBRIS·🇺🇸 United States

Launched Apr 3, 2014 from Vandenberg Space Force Base

Loading…

Next Passes (next 24 hours)

TLE

FreshSource: Space-Track

Epoch: Sep 14, 2026, 10:51 UTC

1 39632U 14015C   26257.45209229  .00001062  00000-0  45933-3 0  9995
2 39632  98.6646 268.7318 0004365 204.2352 155.8624 14.26452278644483

Track DMSP 5D-3 F19 DEB in real time with AllMySat

Download on the App Store